Powrót do katalogu

STARLINK-37334

AktywnyŁącznośćVLEO
NORAD 68700·PAYLOAD·🇺🇸 United States

Wystrzelony Apr 14, 2026 z Cape Canaveral Space Force Station

Loading…

Następne Przeloty (najbliższe 24 godziny)

TLE

ŚwieżeSource: CelesTrak SupGP

Epoka: Sep 14, 2026, 22:57 UTC

1 68700C 26081B   26257.95673611  .00019278  00000+0  56943-3 0  2571
2 68700  53.1575 231.9520 0001457 101.4805 234.1777 15.34389465    17

Śledź STARLINK-37334 w czasie rzeczywistym z AllMySat

Download on the App Store